[[{"header":{"parameterUnit":"m.s-1","parameterCategory":1,"la1":30.2991,"la2":30.254,"lo1":-89.0895,"lo2":-89.0444,"dy":0.0017,"dx":0.0017,"nx":28,"ny":28,"refTime":"2024-03-25T21:00:00:Z","depth":0,"parameterNumber":2,"parameterNumberName":"U-component_of_WINDS"},"data":[0,0,0,0,0,0,0,0,0,0,0,0,0,0,0,0,0,0,0,0,0,0,0,0,0,0,0,0,0,0,0,0,0,0,0,0,0,0,0,0,0,0,0,0,0,0,0,0,0,0,0,0,0,0,0,0,0,0,0.4605,0.4605,0,0.4548,0.4547,0.4547,0.4512,0.4512,0.4512,0.4512,0.445,0.4448,0.4447,0,0,0,0,0,0,0,0,0,0,0,0,0,0.4682,0.4681,0.4605,0.4605,0.4604,0.4548,0.4547,0.4546,0.4512,0.4512,0.4512,0.4511,0.445,0.4448,0.4446,0,0,0,0,0,0,0,0,0,0,0,0,0,0.4639,0.468,0.4606,0.458,0.4577,0.4548,0.4547,0.4546,0.4512,0.4512,0.4512,0.4511,0.4451,0.4448,0.4446,0.4437,0,0,0.4439,0.4438,0,0,0,0,0,0,0,0,0.4642,0.4636,0.4585,0.4582,0.4579,0.4537,0.4551,0.4509,0.4512,0.4537,0.4512,0.4511,0.4479,0.4474,0.4464,0.4434,0.4431,0.4439,0.4438,0.4437,0.4436,0,0,0,0,0,0,0,0.4645,0.4639,0.4583,0.4584,0.458,0.4571,0.4564,0.4543,0.451,0.4535,0.4532,0.4526,0.4477,0.4466,0.4462,0.443,0.4439,0.4437,0.4436,0.4435,0.4389,0.4389,0,0,0,0,0,0,0.4652,0.4641,0.4584,0.4581,0.461,0.4569,0.4562,0.455,0.451,0.4503,0.4526,0.4524,0.447,0.4465,0.446,0.4446,0.4437,0.4435,0.4433,0.4389,0.4389,0.4389,0,0,0,0,0,0,0.4654,0.4647,0.4587,0.461,0.4602,0.4568,0.4555,0.4549,0.4539,0.4503,0.4497,0.4521,0.447,0.4463,0.4443,0.4443,0.4434,0.4432,0.4389,0.4389,0.4389,0.4418,0,0,0,0,0,0,0.4656,0.4648,0.4645,0.4611,0.4601,0.4572,0.4555,0.4549,0.4535,0.4532,0.4497,0.4491,0.4469,0.4446,0.4441,0.444,0.443,0.4389,0.4389,0.4389,0.4417,0.4419,0.4421,0,0,0,0,0,0.4659,0.4655,0.4645,0.4638,0.4596,0.4572,0.4566,0.4542,0.4535,0.4531,0.4509,0.4492,0.4444,0.4445,0.4438,0.4436,0.4389,0.4389,0.4389,0.4416,0.4419,0.4421,0,0,0,0,0,0,0.4689,0.465,0.4639,0.4623,0.4602,0.4566,0.4561,0.4546,0.4524,0.4523,0.4492,0.4484,0.4467,0.445,0.4451,0.4425,0.4414,0.4413,0.4437,0.4439,0.4441,0.4446,0.4428,0,0,0,0,0,0.4695,0.4679,0.4645,0.4635,0.4624,0.4595,0.4583,0.4566,0.4542,0.4532,0.4508,0.4484,0.4463,0.445,0.4429,0.4414,0.4405,0.4409,0.4412,0.4414,0.4413,0.4403,0.4404,0.4391,0.4391,0.4391,0,0,0.4705,0.4681,0.4673,0.464,0.4621,0.4605,0.4587,0.4571,0.4558,0.4529,0.4509,0.449,0.4461,0.4444,0.4435,0.4429,0.4415,0.4414,0.4416,0.4414,0.4403,0.4405,0.4406,0.4391,0.4391,0.4391,0,0,0.4715,0.4696,0.4685,0.4666,0.4638,0.4618,0.4616,0.4583,0.457,0.4549,0.4527,0.4511,0.4476,0.4456,0.4442,0.4444,0.4428,0.4438,0.4449,0.4439,0.444,0.4441,0.4441,0.4442,0.4437,0.4437,0.4437,0,0.473,0.4706,0.4681,0.4666,0.4652,0.4626,0.4614,0.4597,0.4563,0.4553,0.4547,0.4503,0.4482,0.4459,0.4459,0.4448,0.4444,0.4442,0.4442,0.4443,0.4443,0.4443,0.4443,0.4439,0.4439,0.4439,0.4438,0,0.4726,0.471,0.4704,0.4673,0.4658,0.4645,0.4617,0.4605,0.4589,0.4569,0.4548,0.4522,0.4495,0.4488,0.4472,0.4463,0.446,0.4449,0.4437,0.4446,0.4446,0.4446,0.4441,0.444,0.444,0.444,0,0,0.4754,0.4709,0.4708,0.4693,0.466,0.4646,0.4631,0.4606,0.4595,0.4573,0.4559,0.453,0.4519,0.4503,0.4484,0.4476,0.4478,0.4465,0.4464,0.4468,0.4465,0.4474,0.4475,0.4468,0.4467,0.4467,0.4468,0,0.4759,0.4732,0.4709,0.469,0.4674,0.4649,0.4635,0.4613,0.4594,0.4577,0.4555,0.4535,0.4523,0.4513,0.4504,0.448,0.4477,0.448,0.4453,0.4453,0.4461,0.4474,0.4483,0.4485,0.4467,0.4467,0.4467,0,0.4761,0.474,0.472,0.4688,0.4681,0.4669,0.4644,0.4628,0.4602,0.4588,0.457,0.4551,0.4532,0.4523,0.4497,0.45,0.4487,0.4474,0.4473,0.447,0.446,0.4471,0.4485,0.4485,0.4467,0.4467,0.4467,0,0.4783,0.475,0.4733,0.4721,0.4684,0.4676,0.466,0.4634,0.462,0.4597,0.4588,0.4563,0.4549,0.453,0.4504,0.45,0.448,0.4469,0.4468,0.4469,0.4465,0.4466,0.4477,0.4458,0.4458,0.4458,0.4458,0,0.479,0.4779,0.4742,0.4732,0.4718,0.4691,0.4678,0.4659,0.4636,0.4621,0.4597,0.4583,0.455,0.4532,0.4511,0.4492,0.4486,0.4474,0.4469,0.4476,0.4478,0.4468,0.4467,0.4458,0.4458,0.4458,0.4458,0,0.4812,0.4788,0.4768,0.4734,0.4725,0.4717,0.4687,0.4676,0.4656,0.4637,0.4631,0.4599,0.4576,0.4548,0.4516,0.4502,0.4485,0.4477,0.4495,0.4492,0.4492,0.4492,0.4497,0.4496,0.4478,0.4478,0.4478,0,0.4819,0.481,0.4775,0.4764,0.4749,0.4731,0.4717,0.4689,0.4675,0.4644,0.4636,0.4612,0.4591,0.4556,0.4529,0.4504,0.4495,0.4499,0.4491,0.4499,0.4495,0.4496,0.4494,0.4501,0.4501,0.4501,0.4502,0,0.4833,0.4821,0.4802,0.4779,0.4763,0.4743,0.4722,0.4714,0.4682,0.4667,0.4644,0.4628,0.4596,0.4572,0.4544,0.4525,0.4508,0.4504,0.4502,0.451,0.452,0.4514,0.45,0.4504,0.4504,0.4504,0.4504,0.4503,0.4847,0.4837,0.4812,0.4791,0.4773,0.4754,0.4741,0.472,0.4701,0.4673,0.4657,0.4635,0.4608,0.4568,0.4551,0.4532,0.4525,0.4523,0.4522,0.4522,0.4524,0.4524,0.4526,0.4526,0.4526,0.4526,0.4526,0,0.4859,0.4842,0.4823,0.4795,0.4779,0.4765,0.474,0.4727,0.4708,0.4685,0.4665,0.4638,0.4615,0.4586,0.456,0.455,0.4542,0.4544,0.4545,0.4541,0.4531,0.4535,0.4552,0.4552,0.4552,0.4552,0.4552,0.4552,0.4864,0.4847,0.4832,0.4805,0.4787,0.4766,0.4753,0.4735,0.4716,0.4688,0.4668,0.465,0.4624,0.4596,0.4573,0.4565,0.4557,0.4562,0.4552,0.4544,0.4541,0.4539,0.4543,0.4561,0.4561,0.4562,0.4562,0.4562]},{"header":{"parameterUnit":"m.s-1","parameterCategory":1,"la1":30.2991,"la2":30.254,"lo1":-89.0895,"lo2":-89.0444,"dy":0.0017,"dx":0.0017,"nx":28,"ny":28,"refTime":"2024-03-25T21:00:00:Z","depth":0,"parameterNumber":3,"parameterNumberName":"V-component_of_WINDS"},"data":[0,0,0,0,0,0,0,0,0,0,0,0,0,0,0,0,0,0,0,0,0,0,0,0,0,0,0,0,0,0,0,0,0,0,0,0,0,0,0,0,0,0,0,0,0,0,0,0,0,0,0,0,0,0,0,0,0,0,-2.4266,-2.4267,0,-2.4354,-2.4355,-2.4356,-2.4367,-2.4366,-2.4365,-2.4365,-2.4452,-2.4455,-2.4459,0,0,0,0,0,0,0,0,0,0,0,0,0,-2.4106,-2.4108,-2.4266,-2.4267,-2.4268,-2.4354,-2.4355,-2.4356,-2.4367,-2.4366,-2.4365,-2.4364,-2.4451,-2.4455,-2.4459,0,0,0,0,0,0,0,0,0,0,0,0,0,-2.4182,-2.4109,-2.4265,-2.4284,-2.4286,-2.4353,-2.4355,-2.4356,-2.4367,-2.4366,-2.4365,-2.4364,-2.445,-2.4455,-2.4459,-2.4513,0,0,-2.4474,-2.4476,0,0,0,0,0,0,0,0,-2.4178,-2.4188,-2.428,-2.4283,-2.4286,-2.4348,-2.4331,-2.4409,-2.4368,-2.4337,-2.4365,-2.4363,-2.4419,-2.4426,-2.4445,-2.4517,-2.4521,-2.4474,-2.4477,-2.4479,-2.448,0,0,0,0,0,0,0,-2.4173,-2.4185,-2.43,-2.4281,-2.4285,-2.4287,-2.4297,-2.4345,-2.4383,-2.4339,-2.434,-2.4351,-2.442,-2.444,-2.4447,-2.4522,-2.4474,-2.4478,-2.4481,-2.4483,-2.4645,-2.4646,0,0,0,0,0,0,-2.4164,-2.418,-2.4298,-2.4303,-2.4228,-2.4291,-2.4302,-2.4329,-2.4383,-2.439,-2.4352,-2.4351,-2.4433,-2.4442,-2.445,-2.4518,-2.4479,-2.4483,-2.4486,-2.4643,-2.4645,-2.4647,0,0,0,0,0,0,-2.4161,-2.4175,-2.4294,-2.4242,-2.4257,-2.4295,-2.4326,-2.4332,-2.4352,-2.4392,-2.4399,-2.4366,-2.4432,-2.4444,-2.4498,-2.4521,-2.4485,-2.449,-2.4642,-2.4644,-2.4646,-2.4653,0,0,0,0,0,0,-2.4156,-2.4173,-2.4194,-2.4242,-2.426,-2.4341,-2.4327,-2.4334,-2.4361,-2.436,-2.4407,-2.4414,-2.4432,-2.4491,-2.4503,-2.4527,-2.4493,-2.464,-2.4643,-2.4645,-2.465,-2.4655,-2.4658,0,0,0,0,0,-2.415,-2.4192,-2.4195,-2.421,-2.4287,-2.4342,-2.4352,-2.4373,-2.4362,-2.4384,-2.441,-2.4412,-2.4517,-2.4496,-2.451,-2.4535,-2.4638,-2.4642,-2.4645,-2.4649,-2.4654,-2.4658,0,0,0,0,0,0,-2.4145,-2.4199,-2.4203,-2.4261,-2.4297,-2.4344,-2.4371,-2.4378,-2.4416,-2.4414,-2.4438,-2.4449,-2.4502,-2.4524,-2.4501,-2.4591,-2.4576,-2.4583,-2.4575,-2.458,-2.4584,-2.4577,-2.4497,0,0,0,0,0,-2.4151,-2.4191,-2.4236,-2.4283,-2.4301,-2.4333,-2.4357,-2.4371,-2.4408,-2.4423,-2.4453,-2.4489,-2.453,-2.4556,-2.4596,-2.4654,-2.4664,-2.4678,-2.4682,-2.4685,-2.469,-2.4723,-2.473,-2.4658,-2.4658,-2.4658,0,0,-2.4162,-2.4197,-2.4221,-2.4283,-2.4312,-2.4353,-2.4346,-2.4389,-2.442,-2.4429,-2.4483,-2.4506,-2.4548,-2.4605,-2.4631,-2.4625,-2.4713,-2.469,-2.4692,-2.4695,-2.4728,-2.4734,-2.474,-2.466,-2.466,-2.4659,0,0,-2.4205,-2.4235,-2.4278,-2.4308,-2.4353,-2.4375,-2.4385,-2.4431,-2.4447,-2.4502,-2.451,-2.4547,-2.4616,-2.4646,-2.467,-2.4726,-2.473,-2.4738,-2.4759,-2.4791,-2.4796,-2.4802,-2.4822,-2.4829,-2.4743,-2.4743,-2.4743,0,-2.4214,-2.4277,-2.43,-2.4343,-2.437,-2.4383,-2.4427,-2.4454,-2.4509,-2.4527,-2.452,-2.4609,-2.4637,-2.4702,-2.4715,-2.4734,-2.4747,-2.4733,-2.4794,-2.4799,-2.4804,-2.4824,-2.4832,-2.4744,-2.4744,-2.4743,-2.4743,0,-2.4286,-2.4329,-2.4359,-2.4413,-2.4443,-2.4487,-2.4516,-2.4544,-2.4555,-2.4577,-2.4633,-2.4668,-2.4715,-2.4732,-2.4742,-2.4798,-2.4793,-2.4789,-2.4775,-2.4812,-2.4831,-2.4838,-2.4745,-2.4744,-2.4744,-2.4744,0,0,-2.4327,-2.4394,-2.4404,-2.443,-2.4481,-2.4514,-2.4559,-2.4606,-2.463,-2.4668,-2.4706,-2.4765,-2.4763,-2.479,-2.4804,-2.4832,-2.4875,-2.4826,-2.4827,-2.4834,-2.4939,-2.4941,-2.495,-2.4878,-2.488,-2.4881,-2.4936,0,-2.4376,-2.4456,-2.4478,-2.4545,-2.4586,-2.4599,-2.4637,-2.4673,-2.4695,-2.4732,-2.4756,-2.4798,-2.4792,-2.4809,-2.4837,-2.4864,-2.4896,-2.486,-2.4913,-2.4915,-2.4903,-2.4959,-2.4962,-2.5012,-2.4943,-2.4944,-2.4945,0,-2.4443,-2.4484,-2.4555,-2.4602,-2.462,-2.4654,-2.47,-2.4736,-2.4777,-2.4791,-2.4822,-2.4834,-2.4881,-2.4864,-2.4929,-2.4904,-2.4927,-2.4943,-2.4946,-2.4951,-2.4932,-2.4967,-2.5028,-2.5036,-2.4957,-2.4956,-2.4955,0,-2.4466,-2.4539,-2.4591,-2.4612,-2.4668,-2.4692,-2.4716,-2.4756,-2.4783,-2.4823,-2.4841,-2.4886,-2.491,-2.4944,-2.4968,-2.4954,-2.5031,-2.5016,-2.5044,-2.5043,-2.5059,-2.5058,-2.5125,-2.5074,-2.5074,-2.5074,-2.5074,0,-2.4519,-2.4562,-2.4603,-2.4635,-2.4684,-2.4709,-2.4757,-2.4782,-2.4817,-2.4854,-2.4868,-2.4902,-2.4931,-2.497,-2.4989,-2.504,-2.505,-2.5063,-2.5068,-2.5062,-2.5061,-2.5077,-2.5075,-2.5076,-2.5075,-2.5075,-2.5075,0,-2.4552,-2.4581,-2.464,-2.4688,-2.4701,-2.4736,-2.4777,-2.4809,-2.4832,-2.4879,-2.4891,-2.4928,-2.4974,-2.5001,-2.5059,-2.5071,-2.5128,-2.5131,-2.5115,-2.5117,-2.5143,-2.5141,-2.5224,-2.5237,-2.5177,-2.5177,-2.5178,0,-2.4584,-2.4618,-2.4671,-2.4697,-2.4722,-2.4764,-2.4793,-2.4819,-2.4848,-2.4897,-2.4923,-2.4971,-2.501,-2.5083,-2.5114,-2.5159,-2.5163,-2.5189,-2.517,-2.5163,-2.5164,-2.5162,-2.5165,-2.5192,-2.5193,-2.5193,-2.5194,0,-2.4637,-2.465,-2.4691,-2.4738,-2.4772,-2.4809,-2.4847,-2.4867,-2.49,-2.4932,-2.498,-2.501,-2.507,-2.5117,-2.5165,-2.5189,-2.5197,-2.52,-2.5209,-2.5203,-2.5193,-2.5199,-2.5124,-2.5198,-2.5197,-2.5197,-2.5197,-2.5196,-2.4671,-2.4702,-2.4744,-2.479,-2.4821,-2.4856,-2.4889,-2.4917,-2.4957,-2.5009,-2.5022,-2.5072,-2.5113,-2.5178,-2.5203,-2.5243,-2.5239,-2.5251,-2.5255,-2.5258,-2.5259,-2.5186,-2.5252,-2.5252,-2.5252,-2.5252,-2.5252,0,-2.4725,-2.4753,-2.4795,-2.4848,-2.4883,-2.4889,-2.4931,-2.496,-2.5005,-2.5042,-2.5081,-2.5136,-2.5182,-2.5218,-2.5265,-2.529,-2.5295,-2.5301,-2.53,-2.5305,-2.526,-2.5247,-2.5297,-2.5297,-2.5297,-2.5297,-2.5297,-2.5297,-2.4757,-2.4811,-2.4829,-2.4898,-2.4926,-2.4976,-2.5,-2.5032,-2.5062,-2.5124,-2.5162,-2.5186,-2.5222,-2.5272,-2.5315,-2.5324,-2.5341,-2.5347,-2.5357,-2.5313,-2.5308,-2.5304,-2.5293,-2.535,-2.535,-2.5399,-2.54,-2.54]}]]